Probability
10 23 77 100 100 100 100 100 100 100 100 100 100 97 97 97 94 94 87 87 84 81 77 81 81 77 81 77 74 77 77 74 77 74 84 84 81 71 71 71 68 55 71
10 23 87 100 100 100 100 100 100 100 100 100 100 100 97 97 97 97 90 87 84 77 77 77 77 77 81 74 77 77 74 77 81 81 84 84 81 81 74 68 77 68 81
16 42 71 97 100 100 100 100 100 100 100 100 100 100 100 97 94 94 94 94 81 81 74 77 77 77 74 74 74 77 77 74 84 71 68 58 65 71 68 65 71 77 81
26 45 74 97 100 100 100 100 100 100 100 100 100 100 100 97 94 94 94 94 94 84 84 84 84 77 74 77 81 74 71 74 74 68 42 35 42 65 71 71 68 81 74
35 68 97 97 97 97 97 97 97 100 100 100 100 100 100 100 97 97 97 94 94 90 90 90 81 81 77 81 74 71 71 68 61 42 35 55 65 68 61 68 61 74 68
48 48 97 97 97 97 97 97 97 100 100 100 100 100 100 100 97 97 97 97 97 97 97 90 81 81 87 87 84 77 74 61 45 19 32 42 61 68 58 61 58 65 71
52 52 74 97 97 97 97 97 97 100 100 100 100 97 100 97 97 97 97 94 94 94 90 87 87 81 81 81 71 68 58 29 16 23 32 45 61 74 65 65 68 65 68
29 48 71 94 94 97 97 97 97 100 100 100 97 94 94 94 97 94 90 84 84 84 74 74 68 68 74 74 71 68 32 19 13 10 29 48 65 68 71 71 68 71 74
26 45 55 68 90 90 90 90 100 100 97 97 94 90 94 97 100 90 87 90 84 81 65 71 71 74 74 68 58 45 26 26 13 13 13 52 65 65 65 61 68 68 61
26 35 42 45 61 81 87 87 90 90 94 94 87 90 90 87 81 74 87 90 81 68 68 68 65 65 61 61 55 48 42 26 10 6 35 39 71 65 61 58 65 68 55
32 32 26 32 55 52 58 77 84 87 87 87 81 68 65 61 58 55 61 87 71 74 55 58 58 42 55 68 58 52 42 19 13 13 42 42 58 55 55 58 55 61 61
35 29 35 42 52 45 35 77 81 58 87 81 74 58 58 71 68 45 61 68 58 58 52 48 48 35 39 45 48 45 26 13 13 6 32 45 52 55 39 52 45 45 52
35 23 29 39 65 52 61 65 68 68 65 61 68 55 68 65 58 48 55 61 58 45 42 48 52 45 26 39 32 29 13 13 6 13 23 42 48 48 45 52 45 39 35
42 35 29 42 61 77 71 65 65 61 61 55 65 68 55 55 48 42 52 52 52 55 55 39 45 42 39 29 26 16 13 10 6 16 58 32 48 52 48 55 55 39 35
45 35 48 71 74 77 90 74 58 61 58 58 68 68 61 48 39 42 48 55 39 42 42 45 32 32 32 35 19 19 13 10 6 6 39 52 58 65 65 48 52 48 32
45 52 65 74 81 77 77 87 71 65 81 55 45 58 65 52 42 42 45 52 48 45 48 55 29 35 32 32 26 26 23 23 19 23 23 35 45 52 55 58 58 55 48
58 61 74 68 81 74 68 71 65 58 52 45 52 61 65 58 58 52 45 48 48 42 45 55 39 29 32 29 26 26 29 35 29 29 23 29 29 45 48 58 52 55 58
61 77 81 55 71 81 81 77 74 71 58 52 52 58 58 61 58 74 55 45 58 48 52 61 42 39 35 32 35 32 35 55 35 29 23 26 29 19 35 58 58 55 55
77 84 84 77 84 77 81 84 74 87 74 65 58 58 61 68 68 61 58 68 65 52 55 45 45 42 42 48 29 48 35 42 48 23 26 23 16 23 32 55 58 55 52
87 90 87 84 81 81 81 81 77 77 74 68 68 61 58 68 65 58 55 61 48 52 55 55 65 68 68 65 19 23 35 26 42 29 26 19 29 16 13 23 52 42 52
87 94 90 84 81 87 74 77 77 71 77 74 65 65 61 61 61 74 42 58 58 55 55 45 52 55 52 61 52 39 29 19 29 48 32 29 16 19 26 26 39 42 48
87 90 90 90 87 90 77 90 74 71 71 71 74 77 68 58 52 39 65 68 58 74 77 65 71 65 45 45 58 42 29 29 42 3 26 42 29 29 26 26 39 55 48
87 90 94 90 94 90 87 77 77 84 77 65 71 71 68 65 52 65 61 52 71 61 61 68 71 65 55 55 45 35 32 32 29 16 19 29 35 42 42 29 32 42 42
90 90 94 94 94 90 87 84 74 77 74 71 74 68 65 71 58 55 65 61 58 61 74 68 58 58 61 61 55 58 45 35 42 32 16 23 32 35 35 19 19 29 32
77 87 90 94 94 87 87 87 81 77 77 71 68 68 68 65 61 58 61 61 55 61 71 77 71 61 58 65 74 71 61 61 45 45 16 23 19 16 23 26 26 26 29
81 77 81 81 81 84 84 81 81 77 74 71 68 61 52 65 68 52 52 61 61 68 74 68 65 65 74 74 71 65 61 48 55 48 39 45 35 26 19 26 29 29 19
Height
5895 5894 5894 5894 5893 5893 5892 5892 5892 5891 5891 5890 5890 5890 5890 5889 5889 5889 5889 5889 5889 5889 5889 5889 5889 5889 5890 5890 5890 5891 5891 5892 5892 5892 5892 5892 5892 5893 5893 5893 5893 5893 5893
5896 5895 5895 5895 5894 5894 5893 5893 5893 5892 5892 5892 5891 5891 5891 5891 5890 5890 5890 5891 5891 5891 5890 5890 5891 5891 5891 5891 5891 5892 5892 5893 5893 5893 5893 5893 5893 5894 5894 5894 5894 5894 5894
5897 5897 5896 5896 5896 5895 5895 5894 5894 5893 5893 5893 5893 5893 5892 5892 5892 5892 5892 5892 5892 5892 5892 5892 5892 5892 5892 5892 5893 5893 5893 5894 5894 5894 5894 5894 5894 5895 5895 5895 5895 5895 5896
5898 5898 5898 5898 5897 5896 5896 5895 5895 5895 5894 5894 5894 5894 5894 5894 5893 5893 5893 5893 5893 5894 5893 5894 5894 5894 5894 5894 5894 5894 5895 5895 5895 5896 5896 5896 5896 5896 5896 5896 5896 5897 5897
5900 5899 5899 5899 5898 5897 5897 5896 5896 5896 5896 5895 5895 5895 5895 5895 5895 5895 5895 5895 5895 5895 5895 5895 5895 5895 5895 5895 5896 5896 5896 5897 5897 5897 5897 5897 5897 5897 5897 5897 5897 5898 5898
5901 5901 5900 5900 5899 5899 5898 5898 5897 5897 5897 5897 5896 5896 5896 5896 5896 5896 5896 5896 5896 5896 5897 5897 5897 5897 5897 5897 5897 5897 5898 5898 5898 5898 5898 5898 5898 5898 5898 5898 5899 5899 5899
5902 5902 5901 5901 5901 5900 5899 5899 5899 5898 5898 5898 5898 5897 5897 5897 5897 5897 5898 5898 5898 5898 5898 5898 5898 5898 5898 5898 5899 5899 5899 5899 5899 5899 5899 5899 5899 5899 5899 5899 5900 5900 5900
5904 5903 5902 5902 5902 5901 5901 5900 5900 5900 5900 5899 5899 5899 5898 5899 5899 5899 5899 5899 5899 5899 5899 5899 5899 5899 5900 5900 5900 5900 5900 5900 5900 5900 5900 5900 5900 5900 5900 5900 5900 5901 5901
5905 5904 5904 5903 5903 5902 5902 5902 5902 5901 5901 5901 5900 5900 5900 5900 5900 5900 5900 5900 5900 5900 5900 5900 5900 5901 5901 5901 5901 5901 5901 5901 5901 5901 5901 5901 5901 5901 5901 5901 5901 5901 5902
5906 5906 5905 5904 5904 5903 5903 5903 5902 5902 5902 5902 5902 5901 5901 5901 5901 5901 5901 5901 5901 5902 5902 5902 5902 5902 5902 5902 5902 5902 5902 5902 5902 5902 5902 5902 5902 5902 5902 5902 5902 5902 5902
5907 5907 5906 5905 5905 5904 5904 5903 5903 5903 5903 5903 5903 5902 5902 5902 5902 5902 5902 5902 5902 5902 5902 5903 5903 5903 5903 5903 5903 5903 5903 5903 5903 5903 5903 5903 5903 5903 5903 5903 5903 5903 5903
5909 5908 5907 5906 5906 5905 5905 5904 5904 5904 5904 5904 5903 5903 5903 5903 5903 5903 5902 5903 5903 5903 5903 5903 5904 5904 5904 5904 5904 5904 5904 5904 5904 5904 5904 5904 5904 5904 5904 5903 5903 5903 5903
5910 5909 5908 5907 5906 5906 5905 5905 5905 5904 5904 5904 5904 5904 5904 5904 5904 5904 5904 5904 5904 5904 5904 5904 5905 5905 5905 5905 5905 5905 5905 5905 5905 5905 5905 5905 5905 5904 5904 5904 5904 5904 5904
5911 5910 5909 5908 5907 5907 5906 5906 5906 5905 5905 5905 5905 5905 5905 5905 5905 5905 5904 5904 5904 5905 5905 5905 5906 5906 5906 5906 5906 5906 5906 5906 5906 5906 5905 5905 5905 5905 5905 5905 5904 5904 5904
5913 5912 5910 5909 5908 5908 5907 5907 5906 5906 5906 5906 5906 5906 5906 5905 5905 5905 5905 5905 5905 5905 5906 5906 5906 5907 5907 5907 5907 5907 5907 5907 5906 5906 5906 5906 5906 5905 5905 5905 5904 5904 5904
5914 5912 5911 5910 5909 5908 5908 5907 5907 5906 5906 5906 5906 5906 5905 5905 5905 5905 5905 5906 5906 5906 5906 5907 5907 5907 5907 5907 5908 5907 5907 5907 5906 5906 5906 5906 5905 5905 5905 5905 5904 5904 5903
5915 5913 5912 5911 5910 5909 5908 5908 5907 5906 5906 5905 5905 5906 5905 5905 5905 5905 5906 5906 5906 5906 5906 5907 5907 5907 5907 5907 5908 5908 5907 5907 5906 5906 5905 5905 5905 5905 5904 5904 5904 5903 5903
5915 5914 5912 5911 5910 5909 5908 5908 5907 5907 5906 5906 5906 5906 5906 5906 5905 5905 5906 5906 5906 5906 5906 5907 5907 5907 5907 5907 5907 5907 5907 5906 5906 5906 5905 5905 5904 5904 5904 5903 5903 5902 5902
5916 5914 5913 5912 5910 5909 5909 5908 5907 5907 5906 5906 5906 5905 5905 5905 5905 5905 5905 5905 5905 5906 5906 5906 5906 5906 5906 5906 5906 5906 5906 5906 5905 5905 5904 5904 5903 5903 5903 5902 5902 5901 5900
5917 5915 5913 5912 5911 5910 5909 5908 5908 5907 5906 5906 5905 5905 5904 5904 5904 5904 5905 5905 5905 5905 5905 5905 5906 5905 5905 5905 5905 5905 5905 5904 5904 5903 5903 5902 5902 5901 5901 5900 5900 5899 5898
5917 5915 5914 5912 5911 5910 5909 5908 5908 5907 5906 5906 5905 5904 5904 5904 5904 5904 5904 5904 5904 5904 5904 5904 5904 5904 5904 5904 5904 5904 5903 5903 5902 5902 5901 5900 5900 5899 5899 5898 5897 5897 5896
5917 5916 5914 5913 5912 5911 5909 5908 5908 5907 5906 5905 5905 5904 5904 5903 5903 5903 5903 5903 5903 5903 5903 5903 5903 5903 5903 5903 5903 5902 5902 5902 5900 5900 5899 5898 5897 5897 5896 5895 5894 5893 5892
5918 5916 5914 5913 5911 5910 5909 5908 5907 5906 5906 5905 5904 5904 5903 5903 5902 5902 5902 5902 5902 5902 5902 5902 5902 5902 5901 5901 5901 5900 5900 5899 5898 5897 5896 5895 5895 5894 5893 5892 5891 5890 5889
5918 5916 5914 5913 5911 5910 5909 5908 5907 5906 5905 5905 5904 5903 5902 5902 5901 5901 5901 5901 5900 5900 5900 5900 5900 5900 5899 5899 5899 5898 5897 5896 5895 5894 5894 5892 5891 5890 5889 5888 5887 5887 5885
5919 5917 5915 5913 5911 5910 5908 5907 5906 5905 5904 5903 5903 5902 5901 5901 5900 5900 5900 5899 5899 5899 5898 5898 5898 5898 5897 5897 5896 5895 5894 5893 5892 5891 5891 5889 5888 5886 5885 5884 5883 5882 5881
5919 5917 5915 5913 5911 5910 5908 5907 5906 5905 5904 5903 5902 5901 5900 5900 5899 5899 5898 5898 5898 5897 5897 5896 5896 5895 5895 5894 5893 5892 5891 5890 5889 5888 5887 5886 5884 5883 5881 5880 5879 5878 5876
Wind_Speed
9 9 9 9 9 9 10 10 11 11 11 11 12 12 12 11 11 11 11 10 10 9 9 9 9 9 9 9 9 8 8 7 6 6 6 6 6 6 5 5 5 4 4
9 9 9 8 8 9 9 10 10 10 11 11 11 11 11 11 11 11 11 11 10 10 9 9 9 9 9 8 9 8 7 7 7 6 6 5 5 5 5 5 4 4 5
8 8 8 7 8 8 9 9 10 10 10 10 10 10 11 10 10 10 10 10 10 10 10 9 10 9 9 9 9 8 7 7 7 6 6 5 5 5 5 5 4 5 5
7 8 7 7 7 8 9 9 10 10 10 10 10 10 10 10 10 10 10 10 10 10 10 10 10 10 9 9 9 8 7 7 6 6 6 5 5 5 5 4 4 5 5
7 7 7 6 7 8 8 9 10 10 10 10 10 9 9 10 10 10 9 10 9 10 10 10 9 9 9 9 8 7 7 7 7 6 6 6 5 5 5 4 4 5 4
7 6 6 6 6 7 8 9 9 10 10 10 10 9 9 9 9 9 9 9 9 9 9 9 9 9 9 8 7 7 7 7 7 7 6 6 5 5 5 5 5 4 4
7 6 6 6 6 7 8 8 9 9 9 9 9 9 9 9 8 8 9 9 8 8 8 8 9 9 8 8 7 7 7 7 7 7 6 5 5 5 5 5 5 4 4
7 6 6 6 6 7 7 8 8 8 8 8 8 8 8 8 8 8 8 8 8 8 8 8 8 8 8 7 7 7 7 7 7 7 6 6 5 5 5 5 5 4 4
7 7 6 7 6 6 6 7 7 8 8 8 8 8 8 8 8 8 8 8 8 8 8 8 8 8 8 7 7 7 7 7 7 7 6 6 6 5 5 5 4 4 4
7 7 6 6 6 6 6 6 7 6 7 7 7 7 7 7 7 8 8 7 7 8 8 8 8 8 8 7 7 7 7 7 7 7 6 6 5 5 5 5 4 4 3
7 6 6 6 6 6 5 5 5 5 6 6 6 6 7 7 7 8 7 7 7 7 8 8 7 7 7 7 7 7 7 6 6 6 5 5 4 4 5 4 4 3 3
7 6 6 6 5 5 5 5 6 5 5 5 5 6 6 6 7 7 7 7 7 7 7 7 7 7 7 7 6 6 6 5 5 5 4 4 4 4 4 3 3 3 2
7 6 6 6 5 5 4 5 5 5 5 5 5 5 5 5 6 6 6 6 7 7 7 6 6 6 6 6 5 5 5 4 4 4 3 3 3 3 3 3 2 2 2
7 6 6 6 5 5 5 4 4 4 4 4 4 4 4 4 4 5 5 5 6 6 6 6 6 5 5 5 4 4 3 3 3 2 2 2 2 2 2 2 1 1 1
8 7 6 5 5 4 4 4 3 3 3 3 3 3 2 2 3 3 4 5 5 5 5 5 4 4 3 3 3 3 2 2 2 2 1 1 0 1 1 1 1 1 0
8 7 6 5 4 3 2 3 3 3 2 2 2 2 2 2 2 3 4 4 5 4 4 4 3 2 2 1 1 1 1 0 0 1 0 1 1 1 2 2 2 2 2
8 8 6 6 5 4 3 2 2 1 1 1 2 2 2 2 2 3 3 4 4 4 3 3 2 2 1 1 1 1 1 1 2 2 2 2 2 2 3 3 3 4 4
9 8 7 6 5 4 3 2 2 1 1 1 1 1 1 1 2 3 3 4 4 4 3 2 2 1 1 2 2 2 2 2 3 4 4 4 4 4 5 5 6 6 6
9 8 7 6 5 4 3 3 2 2 1 1 1 1 0 1 2 3 4 4 4 4 3 3 3 3 3 3 3 4 4 4 5 5 6 6 6 7 7 8 8 8 7
10 9 7 6 5 5 4 3 3 2 1 1 2 1 1 2 2 2 3 4 4 4 4 4 4 4 4 4 5 5 6 6 7 7 7 8 9 9 9 10 10 10 10
10 9 8 7 6 5 4 4 4 3 2 2 2 1 1 2 3 2 2 3 4 5 5 5 5 5 6 6 6 7 8 8 9 9 10 10 10 11 11 12 12 12 13
10 9 8 7 6 6 5 5 4 4 4 3 3 3 2 2 3 3 3 4 5 5 6 6 6 7 7 7 8 8 9 10 11 11 11 12 13 13 13 14 14 15 15
10 9 8 8 7 7 6 6 5 5 5 5 4 4 4 4 3 4 4 4 5 6 6 7 8 8 8 8 9 10 10 12 13 13 13 14 14 15 15 15 16 17 17
11 10 9 8 8 7 7 7 6 5 6 6 5 5 5 5 5 5 5 5 6 7 7 8 8 9 9 9 10 11 11 12 13 14 15 15 15 16 16 17 18 18 19
12 11 10 9 8 8 8 7 7 7 6 6 6 5 5 5 6 6 6 6 6 7 8 9 9 9 10 11 12 12 13 13 14 15 16 16 17 17 18 18 18 19 20
12 12 11 10 9 8 7 7 7 7 7 7 6 6 6 6 7 7 7 7 7 8 8 9 9 10 11 12 13 13 13 14 15 16 17 17 18 18 18 19 19 20 19
Wind_Direction
89 86 86 86 86 87 88 88 90 90 90 89 88 88 88 88 90 90 90 89 86 88 88 91 92 97 100 104 106 108 108 110 108 109 109 107 105 108 112 105 110 114 116
87 86 85 86 87 89 89 90 92 92 91 90 89 89 89 89 90 89 85 85 86 86 88 89 91 92 96 101 104 106 107 105 103 102 103 104 107 113 121 111 106 105 108
83 84 85 88 91 93 94 94 94 94 94 93 91 89 90 91 91 90 88 86 87 86 85 87 88 88 91 96 99 99 103 104 100 97 98 100 106 115 121 120 115 109 108
82 82 84 88 93 97 97 95 94 96 97 96 92 89 91 93 92 92 91 89 90 88 85 86 87 88 89 91 92 92 95 97 97 101 104 101 104 111 117 117 118 117 114
83 83 86 88 91 96 97 97 95 94 95 94 92 91 91 92 92 94 94 93 91 90 88 87 86 89 92 94 94 94 96 99 100 102 103 102 104 111 113 110 113 119 118
82 81 83 88 91 93 97 99 97 94 93 92 90 92 94 94 95 96 96 95 94 93 91 92 91 90 95 96 96 97 98 100 101 103 102 103 106 107 108 109 114 117 118
80 76 80 88 88 92 96 98 99 97 96 94 93 93 96 97 98 98 97 97 96 95 92 93 94 94 95 96 97 97 99 101 103 103 102 103 104 104 108 111 114 117 117
77 75 78 84 87 91 95 98 100 100 99 98 96 95 97 98 98 97 97 98 99 98 96 95 95 95 95 97 98 99 102 102 101 101 101 105 105 105 106 112 117 117 118
74 73 75 79 83 88 92 95 98 98 99 97 96 98 100 101 101 99 99 99 99 99 99 96 95 96 97 96 99 101 103 103 101 100 103 102 103 107 106 109 113 115 122
70 69 71 75 79 84 88 92 96 96 95 95 94 97 99 102 103 104 105 104 103 101 101 100 98 96 96 95 98 103 106 105 103 103 101 99 98 102 106 108 109 116 123
67 67 69 73 77 81 83 89 94 95 94 95 96 98 101 102 103 105 106 108 108 108 106 103 101 99 97 96 98 103 106 105 102 99 98 95 96 102 103 107 108 115 124
64 65 69 70 71 75 80 86 92 95 93 95 98 100 101 104 107 107 109 109 112 112 110 107 105 105 101 97 99 99 101 103 101 100 96 91 92 99 100 101 104 112 123
59 63 68 65 65 72 82 90 94 93 94 95 100 104 107 111 114 112 115 113 116 115 112 110 112 110 103 98 99 94 96 101 104 103 100 95 90 97 94 96 98 103 124
55 58 60 61 62 67 77 87 94 94 95 98 100 107 118 122 120 124 125 123 121 118 115 114 118 111 104 105 105 96 98 101 96 101 102 94 89 92 83 80 79 77 149
47 48 51 54 60 64 67 76 87 97 103 102 101 105 123 136 136 135 133 134 130 125 122 118 118 112 110 112 106 96 98 104 88 92 107 115 93 75 17 357 9 353 267
42 42 41 43 46 51 54 60 72 87 101 112 109 117 123 147 155 153 149 147 145 145 144 136 129 122 124 130 114 102 85 57 45 32 325 266 266 284 299 302 308 310 294
32 32 31 27 31 43 46 53 57 65 91 83 106 113 117 139 166 167 167 166 165 165 168 171 169 170 162 225 226 240 274 293 291 292 284 276 275 279 286 291 297 299 292
26 22 18 20 26 25 31 31 33 32 33 45 97 99 131 156 185 193 194 188 185 187 199 207 217 228 263 268 265 271 283 296 291 289 283 282 284 286 285 288 290 289 286
24 19 18 17 19 15 7 360 5 3 353 323 291 314 240 247 245 226 213 207 207 209 219 230 240 257 273 274 271 270 280 294 294 293 287 282 282 283 284 285 285 289 291
16 16 22 18 11 3 358 354 344 338 325 293 308 297 269 249 264 250 232 229 223 229 235 240 251 263 273 280 276 274 279 288 289 289 288 285 283 282 282 283 283 286 287
8 12 14 11 3 358 352 349 349 349 343 303 298 300 300 266 257 266 249 235 233 237 239 246 255 264 272 280 281 280 284 289 293 288 288 287 286 285 284 282 283 285 284
2 8 11 11 5 353 342 339 342 341 331 311 298 301 295 282 263 268 271 250 244 245 255 260 267 270 273 279 283 285 288 290 290 288 287 288 287 287 286 286 284 286 285
6 4 3 2 360 353 342 334 333 337 332 323 304 291 290 298 286 276 275 260 257 256 262 271 279 277 279 285 286 287 288 290 291 291 290 290 289 288 287 288 287 288 287
2 1 360 356 351 347 344 340 333 327 323 315 310 297 292 298 300 292 283 279 272 264 268 274 276 277 281 285 289 289 290 293 292 288 290 293 293 291 290 288 285 285 285
1 360 358 355 351 344 339 340 342 339 329 320 315 308 302 301 306 300 290 285 277 272 273 275 277 280 286 288 290 291 293 294 291 290 290 291 294 294 292 290 288 287 286
356 356 356 355 351 345 342 339 334 333 330 323 317 313 308 301 301 297 292 287 285 283 282 277 281 287 291 292 293 293 292 292 291 291 291 292 294 294 292 291 290 289 290